This demonstration page uses our WeatherBlox Daily Observations layout. Learn more.

Left ArrowRight Arrow

Hourly Observations for August 18, 2022

Temp ( °F °C ) Dew Point ( °F °C ) Humidity (%) Winds ( mph kmh ) Pressure ( in mb ) Visibility ( mi km ) Precip ( " mm )
12:53 am 00:53 Clear 61 16.1 58 14.4 90 90 Calm 30.10 1019 10 16 0.00 0.00
1:53 am 01:53 Clear 61 16.1 58 14.4 90 90 Calm 30.09 1019 7 11 0.00 0.00
2:53 am 02:53 Clear 60 15.6 56 13.3 86 86 Calm 30.08 1019 9 14 0.00 0.00
3:53 am 03:53 Clear 60 15.6 57 13.9 90 90 SSW 3 6 30.08 1019 9 14 0.00 0.00
4:53 am 04:53 Clear 62 16.7 58 14.4 86 86 S 5 7 30.07 1018 10 16 0.00 0.00
5:53 am 05:53 Clear 62 16.7 57 13.9 84 84 S 3 6 30.06 1018 10 16 0.00 0.00
6:53 am 06:53 Sunny 60 15.6 56 13.3 86 86 SSW 3 6 30.07 1018 9 14 0.00 0.00
7:53 am 07:53 Sunny 62 16.7 58 14.4 86 86 SW 5 7 30.07 1018 10 16 0.00 0.00
8:53 am 08:53 Sunny 67 19.4 59 15 76 76 WSW 6 9 30.07 1018 10 16 0.00 0.00
9:53 am 09:53 Sunny 73 22.8 60 15.6 64 64 SSW 8 13 30.05 1018 10 16 0.00 0.00
10:53 am 10:53 Sunny 77 25 61 16.1 58 58 WSW 8 13 30.04 1017 10 16 0.00 0.00
11:53 am 11:53 Sunny 80 26.7 60 15.6 51 51 WSW 9 15 30.02 1017 10 16 0.00 0.00
12:53 pm 12:53 Sunny 83 28.3 60 15.6 46 46 WSW 8 13 30.00 1016 10 16 0.00 0.00
1:53 pm 13:53 Sunny 85 29.4 59 15 42 42 WSW 9 15 29.98 1015 10 16 0.00 0.00
2:53 pm 14:53 Sunny 86 30 57 13.9 37 37 SW 12 19 29.97 1015 10 16 0.00 0.00
3:53 pm 15:53 Sunny 86 30 58 14.4 39 39 SSW 13 20 29.94 1014 10 16 0.00 0.00
4:53 pm 16:53 Sunny 86 30 58 14.4 39 39 SSW 8 13 29.91 1013 10 16 0.00 0.00
5:53 pm 17:53 Sunny 82 27.8 58 14.4 44 44 S 3 6 29.90 1013 10 16 0.00 0.00
6:53 pm 18:53 Mostly Sunny 83 28.3 59 15 44 44 SSW 6 9 29.89 1012 10 16 0.01 0.13
7:53 pm 19:53 Sunny 80 26.7 60 15.6 51 51 SW 3 6 29.88 1012 10 16 0.00 0.00
8:53 pm 20:53 Clear 76 24.4 59 15 56 56 Calm 29.87 1012 10 16 0.00 0.00
9:53 pm 21:53 Mostly Clear 70 21.1 62 16.7 76 76 Calm 29.89 1012 10 16 0.00 0.00
10:53 pm 22:53 Mostly Cloudy 70 21.1 63 17.2 78 78 N 3 6 29.91 1013 10 16 0.00 0.00
11:53 pm 23:53 Partly Cloudy 70 21.1 63 17.2 78 78 N 3 6 29.91 1013 10 16 0.00 0.00

Powered by AerisWeather